Погода в Балтыме

Россия / Свердловская область     56°59′46″N   60°36′23″E
темп.,
°C
ветер,
м/с
пор.,
м/с
влажн.,
%
обл.,
%
осадки,
мм/ч
давл.,
гПа
погр.,
м
10 мая, пн
пн1023:00+13св276150 0.0 1019129
02:00+11юв226687 0.0 102053
05:00+12в116599 0.0 102215
08:00+15вюв255426 0.0 1023403
11:00+20в35375 0.0 10231443
14:00+22в4428100 0.0 10232259
17:00+21в332612 0.0 10232482
20:00+17юв36380 0.0 1024239
11 мая, вт
вт1123:00+12ююв26500 0.0 1026125
02:00+10ююз22515 0.0 102741
05:00+9ююз22525 0.0 102826
08:00+14ююз2440100 0.0 1028258
11:00+18ююз2228100 0.0 1028818
14:00+20зюз1227100 0.0 10281318
17:00+21з222917 0.0 10271553
20:00+18зюз22436 0.0 102739
12 мая, ср
ср1223:00+14з225212 0.0 102836
02:00+12сз236898 0.0 102856
05:00+11ссз229291 0.0 102946
08:00+14ссз2374100 0.0 1029487
11:00+19ссз3438100 0.0 10291265
14:00+21ссз23305 0.0 10281625
17:00+22ссз343049 0.0 10272002
20:00+19с134676 0.0 1027124
13 мая, чт
чт1323:00+15ссз25625 0.0 102899
02:00+12ссз247322 0.0 102985
05:00+11сз117987 0.0 102913
08:00+17зсз235731 0.0 1029312
11:00+22сз234168 0.0 10281638
14:00+25ссз343340 0.0 10272104
17:00+26ссз353036 0.0 10262241
20:00+22сз244516 0.0 1026134
14 мая, пт
пт1423:00+17сз22595 0.0 102738
02:00+16зсз11655 0.0 102711
05:00+14з11683 0.0 102813
08:00+20з23511 0.0 1027263
11:00+25з34365 0.0 10261856
14:00+27з35285 0.0 10252531
17:00+27з46272 0.0 10242711
20:00+23зсз38400 0.0 1023496